Date String (YYYY-MM-DD hh:mm:ss) UTC,Instrument flags,Ambient pressure (hPa),Sample flow (lpm),Bypass flow (lpm),Sample temperature (°C),Ambient temperature (°C),ASC tube jacket temperature (°C),LED temperature (°C),Box temperature (°C),Sample RH (%),Span deviation,Mass concentration (μg/m³),Mass concentration (μg/m³),Mass concentration (μg/m³)
DateTimeUTC,F1_M11,P_M11,Q1_M11,Q2_M11,T1_M11,T2_M11,T3_M11,T4_M11,T5_M11,U1_M11,ZSPAN_M11,X0_M11,X2_M11,X1_M11
2022-01-21 05:00:00,,0824.3,5.01,0.00,21.8,21.1,00.0,30.9,23.5,13.5,-001.1,0021.48,0015.44,0015.05
2022-01-21 05:01:00,,0824.3,4.99,0.00,21.8,21.1,00.0,30.9,23.5,13.5,-001.2,0021.59,0015.50,0015.10
2022-01-21 05:02:00,,0824.3,5.01,0.00,21.8,21.2,00.0,30.9,23.5,13.5,-001.2,0021.74,0015.55,0015.13
2022-01-21 05:03:00,,0824.3,4.99,0.00,21.9,22.0,00.0,30.9,23.7,13.5,-001.1,0021.65,0015.66,0015.24
2022-01-21 05:04:00,,0824.3,5.00,0.00,22.1,22.9,00.0,31.0,24.0,13.3,-000.9,0021.52,0015.72,0015.27
2022-01-21 05:05:00,,0824.3,5.01,0.00,22.2,23.2,00.0,31.0,24.2,13.2,-001.0,0021.52,0015.72,0015.28
2022-01-21 05:06:00,,0824.3,5.00,0.00,22.2,22.9,00.0,31.0,24.3,13.2,-001.0,0021.51,0015.75,0015.30
2022-01-21 05:07:00,,0824.3,4.99,0.00,22.3,22.7,00.0,31.1,24.2,13.2,-000.9,0020.91,0015.91,0015.44
2022-01-21 05:08:00,,0824.3,5.00,0.00,22.3,22.5,00.0,31.1,24.2,13.2,-001.0,0021.03,0016.04,0015.57
2022-01-21 05:09:00,,0824.3,4.99,0.00,22.3,22.3,00.0,31.1,24.1,13.2,-001.1,0021.12,0016.10,0015.66
2022-01-21 05:10:00,,0824.3,5.01,0.00,22.3,22.2,00.0,31.1,24.1,13.2,-001.1,0021.11,0016.13,0015.69
2022-01-21 05:11:00,,0824.3,5.00,0.00,22.3,22.1,00.0,31.1,24.1,13.2,-001.1,0021.16,0016.14,0015.69
2022-01-21 05:12:00,,0824.3,4.99,0.00,22.2,22.0,00.0,31.1,24.0,13.2,-001.0,0021.05,0016.10,0015.68
2022-01-21 05:13:00,,0824.3,5.00,0.00,22.2,21.9,00.0,31.1,24.0,13.2,-001.2,0020.98,0016.09,0015.69
2022-01-21 05:14:00,,0824.3,4.99,0.00,22.2,21.8,00.0,31.1,24.0,13.2,-001.3,0021.05,0016.14,0015.74
2022-01-21 05:15:00,,0824.3,5.00,0.00,22.2,21.8,00.0,31.1,24.0,13.2,-001.3,0021.23,0016.24,0015.83
2022-01-21 05:16:00,,0824.2,5.01,0.00,22.2,21.7,00.0,31.1,24.0,13.2,-001.0,0021.35,0016.32,0015.88
2022-01-21 05:17:00,,0824.1,5.00,0.00,22.2,21.7,00.0,31.1,24.0,13.2,-001.0,0021.25,0016.22,0015.79
2022-01-21 05:18:00,,0824.2,4.99,0.00,22.2,21.6,00.0,31.1,23.9,13.2,-001.1,0020.85,0016.01,0015.59
2022-01-21 05:19:00,,0824.2,5.01,0.00,22.1,21.6,00.0,31.1,23.9,13.3,-001.1,0020.80,0015.98,0015.52
2022-01-21 05:20:00,,0824.1,4.99,0.00,22.1,21.5,00.0,31.1,23.8,13.3,-000.9,0020.77,0015.94,0015.45
2022-01-21 05:21:00,,0824.1,5.01,0.00,22.1,21.5,00.0,31.1,23.9,13.3,-000.8,0020.67,0015.90,0015.41
2022-01-21 05:22:00,,0824.0,4.98,0.00,22.1,21.5,00.0,31.1,23.9,13.3,-000.8,0020.61,0015.88,0015.39
2022-01-21 05:23:00,,0824.1,5.02,0.00,22.1,21.5,00.0,31.1,23.9,13.3,-000.9,0020.71,0015.91,0015.41
2022-01-21 05:24:00,,0824.0,5.00,0.00,22.1,21.5,00.0,31.1,23.9,13.3,-000.8,0020.74,0015.92,0015.41
2022-01-21 05:25:00,,0824.0,4.99,0.00,22.1,21.4,00.0,31.1,23.9,13.3,-000.9,0020.64,0015.87,0015.35
2022-01-21 05:26:00,,0823.9,5.01,0.00,22.1,21.4,00.0,31.1,23.8,13.3,-000.9,0020.37,0015.72,0015.25
2022-01-21 05:27:00,,0824.0,5.00,0.00,22.1,21.3,00.0,31.1,23.8,13.3,-001.1,0019.99,0015.49,0015.06
2022-01-21 05:28:00,,0824.0,5.00,0.00,22.0,21.2,00.0,31.1,23.7,13.3,-001.0,0019.86,0015.44,0015.02
2022-01-21 05:29:00,,0824.0,5.00,0.00,22.0,21.2,00.0,31.0,23.7,13.3,-000.9,0019.90,0015.49,0015.09
2022-01-21 05:30:00,,0824.0,4.99,0.00,22.0,21.3,00.0,31.0,23.7,13.3,-000.9,0019.72,0015.40,0015.04
2022-01-21 05:31:00,,0824.0,5.01,0.00,22.1,21.8,00.0,31.1,23.8,13.3,-001.1,0019.71,0015.39,0015.04
2022-01-21 05:32:00,,0824.0,4.99,0.00,22.2,22.7,00.0,31.1,24.1,13.2,-001.2,0019.71,0015.38,0015.04
2022-01-21 05:33:00,,0824.0,5.00,0.00,22.3,23.2,00.0,31.1,24.3,13.1,-001.3,0019.70,0015.34,0015.01
2022-01-21 05:34:00,,0824.0,4.99,0.00,22.4,22.9,00.0,31.2,24.3,13.1,-001.3,0019.65,0015.30,0014.97
2022-01-21 05:35:00,,0823.9,5.01,0.00,22.4,22.7,00.0,31.2,24.3,13.0,-001.4,0019.58,0015.26,0014.94
2022-01-21 05:36:00,,0823.9,4.99,0.00,22.4,22.5,00.0,31.2,24.2,13.1,-001.2,0019.58,0015.28,0014.96
2022-01-21 05:37:00,,0823.9,5.01,0.00,22.4,22.3,00.0,31.2,24.2,13.1,-001.1,0019.77,0015.39,0015.04
2022-01-21 05:38:00,,0823.8,4.99,0.00,22.4,22.2,00.0,31.2,24.2,13.1,-001.1,0020.10,0015.52,0015.14
2022-01-21 05:39:00,,0823.8,5.00,0.00,22.4,22.1,00.0,31.2,24.1,13.1,-001.0,0020.25,0015.57,0015.20
2022-01-21 05:40:00,,0823.8,5.00,0.00,22.4,22.0,00.0,31.2,24.1,13.0,-001.1,0020.37,0015.58,0015.21
2022-01-21 05:41:00,,0823.6,4.98,0.00,22.3,21.9,00.0,31.2,24.1,13.0,-001.1,0020.47,0015.61,0015.24
2022-01-21 05:42:00,,0823.6,5.01,0.00,22.3,21.9,00.0,31.2,24.1,13.0,-001.2,0020.52,0015.60,0015.20
2022-01-21 05:43:00,,0823.7,4.99,0.00,22.3,21.8,00.0,31.2,24.1,13.0,-001.2,0020.55,0015.62,0015.22
2022-01-21 05:44:00,,0823.7,5.01,0.00,22.3,21.8,00.0,31.2,24.1,13.0,-001.2,0020.55,0015.64,0015.23
2022-01-21 05:45:00,,0823.7,4.99,0.00,22.3,21.7,00.0,31.2,24.1,13.0,-001.1,0020.49,0015.60,0015.20
2022-01-21 05:46:00,,0823.7,5.00,0.00,22.3,21.7,00.0,31.2,24.0,13.0,-001.0,0020.37,0015.52,0015.12
2022-01-21 05:47:00,,0823.6,4.99,0.00,22.3,21.7,00.0,31.2,24.0,13.0,-001.0,0020.30,0015.46,0015.06
2022-01-21 05:48:00,,0823.7,5.01,0.00,22.3,21.6,00.0,31.2,24.0,13.0,-001.0,0020.01,0015.28,0014.91
2022-01-21 05:49:00,,0823.7,5.00,0.00,22.2,21.6,00.0,31.2,24.0,13.0,-001.1,0019.64,0015.15,0014.80
2022-01-21 05:50:00,,0823.7,5.01,0.00,22.2,21.6,00.0,31.2,24.0,13.0,-001.1,0019.57,0015.15,0014.80
2022-01-21 05:51:00,,0823.6,4.99,0.00,22.2,21.5,00.0,31.2,24.0,13.0,-001.1,0019.41,0015.10,0014.73
2022-01-21 05:52:00,,0823.7,5.01,0.00,22.2,21.5,00.0,31.2,23.9,13.0,-001.1,0019.44,0015.05,0014.65
2022-01-21 05:53:00,,0823.7,4.98,0.00,22.2,21.5,00.0,31.2,23.9,13.1,-001.0,0019.61,0015.07,0014.68
2022-01-21 05:54:00,,0823.6,5.00,0.00,22.2,21.5,00.0,31.2,23.9,13.1,-001.1,0019.60,0015.05,0014.67
2022-01-21 05:55:00,,0823.6,5.02,0.00,22.2,21.4,00.0,31.2,23.9,13.1,-001.0,0019.56,0015.03,0014.65
2022-01-21 05:56:00,,0823.6,4.98,0.00,22.1,21.4,00.0,31.1,23.8,13.1,-001.1,0019.47,0014.98,0014.62
2022-01-21 05:57:00,,0823.5,5.00,0.00,22.1,21.4,00.0,31.1,23.8,13.1,-001.1,0019.55,0015.03,0014.66
2022-01-21 05:58:00,,0823.6,5.02,0.00,22.1,21.4,00.0,31.1,23.8,13.1,-001.3,0019.59,0015.03,0014.67
2022-01-21 05:59:00,,0823.6,4.99,0.00,22.1,21.3,00.0,31.1,23.8,13.1,-001.4,0019.68,0015.07,0014.71
